Muscatine, IA

8:18 PM CDT on July 20, 2017 (GMT -0500)
Muscatine Municipal

Weather History for KMUT - March, 2014

Change the Weather History Date:

Friday, March 7, 2014

  Actual Average Record
Temperature  
Mean Temperature 30 °F -  
Max Temperature 48 °F 46 °F 75 °F (1987)
Min Temperature 12 °F 26 °F -1 °F (1960)
Degree Days  
Heating Degree Days 35    
Moisture  
Dew Point 24 °F    
Average Humidity 79    
Maximum Humidity 100    
Minimum Humidity 49    
Precipitation  
Precipitation 0.00 in - - ()
Sea Level Pressure  
Sea Level Pressure 29.95 in    
Wind  
Wind Speed 4 mph (West)    
Max Wind Speed 14 mph    
Max Gust Speed 16 mph    
Visibility 6 miles    
Events Fog    
Averages and records for this station are not official NWS values.
T = Trace of Precipitation, MM = Missing Value Source: NWS Daily Summary

Daily Weather History Graph

Daily Weather History Graph

Search for Another Location

Airport or City:

Trip Planner

Search our weather history database for the weather conditions in past years. The results will help you decide how hot, cold, wet, or windy it might be!

Date:

Astronomy

Mar. 07, 2014 Rise Set
Actual Time 6:29 AM CST 6:02 PM CST
Civil Twilight 6:01 AM CST 6:29 PM CST
Nautical Twilight 5:29 AM CST 7:01 PM CST
Astronomical Twilight 4:57 AM CST 7:34 PM CST
Moon 10:18 AM CST (3/7) 12:11 AM CST (3/7)
Length of Visible Light 12h 27m
Length of Day
11h 32m
Waxing Crescent, 42% of the Moon is Illuminated
Mar 7
Waxing Crescent
Mar 8
First Quarter
Mar 16
Full
Mar 23
Last Quarter
Mar 30
New

Hourly Weather History & Observations

Time (CST) Temp. Windchill Dew Point Humidity Pressure Visibility Wind Dir Wind Speed Gust Speed Precip Events Conditions
12:15 AM 14.0 °F - 12.2 °F 93% 30.03 in 8.0 mi Calm Calm - N/A   Partly Cloudy
12:35 AM 14.0 °F - 10.4 °F 86% 30.03 in 7.0 mi Calm Calm - N/A   Clear
12:55 AM 15.8 °F - 14.0 °F 93% 30.02 in 8.0 mi Calm Calm - N/A   Clear
1:15 AM 17.6 °F - 14.0 °F 86% 30.02 in 7.0 mi Calm Calm - N/A   Clear
1:35 AM 14.0 °F - 12.2 °F 93% 30.01 in 6.0 mi Calm Calm - N/A   Clear
1:55 AM 14.0 °F - 12.2 °F 93% 30.01 in 5.0 mi Calm Calm - N/A   Clear
2:15 AM 15.8 °F - 14.0 °F 93% 29.99 in 4.0 mi Calm Calm - N/A   Clear
2:35 AM 12.2 °F - 8.6 °F 85% 29.99 in 5.0 mi Calm Calm - N/A   Clear
2:55 AM 14.0 °F - 10.4 °F 86% 29.98 in 5.0 mi Calm Calm - N/A   Clear
3:15 AM 14.0 °F - 10.4 °F 86% 29.97 in 4.0 mi Calm Calm - N/A   Clear
3:35 AM 14.0 °F 8.2 °F 12.2 °F 93% 29.97 in 4.0 mi NNE 3.5 mph - N/A   Clear
3:55 AM 14.0 °F - 12.2 °F 93% 29.96 in 2.5 mi Calm Calm - N/A   Clear
4:15 AM 12.2 °F - 12.2 °F 100% 29.96 in 4.0 mi Calm Calm - N/A   Clear
4:35 AM 12.2 °F - 10.4 °F 92% 29.95 in 5.0 mi Calm Calm - N/A   Clear
4:50 AM 12.2 °F 6.1 °F 10.4 °F 92% 29.96 in 4.0 mi WNW 3.5 mph - N/A   Clear
5:15 AM 14.0 °F - 10.4 °F 86% 29.96 in 1.5 mi Calm Calm - N/A   Clear
5:35 AM 12.2 °F - 10.4 °F 92% 29.95 in 0.2 mi Calm Calm - N/A Fog Light Freezing Fog
5:55 AM 14.0 °F - 12.2 °F 93% 29.95 in 1.2 mi Calm Calm - N/A   Clear
6:15 AM 15.8 °F - 14.0 °F 93% 29.94 in 2.5 mi Calm Calm - N/A   Clear
6:35 AM 14.0 °F - 12.2 °F 93% 29.94 in 0.2 mi Calm Calm - N/A Fog Light Freezing Fog
6:55 AM 14.0 °F - 12.2 °F 93% 29.94 in - Calm Calm - N/A   Unknown
7:15 AM 14.0 °F - 12.2 °F 93% 29.94 in 0.2 mi Calm Calm - N/A Fog Light Freezing Fog
7:35 AM 14.0 °F - 12.2 °F 93% 29.95 in 3.0 mi Calm Calm - N/A   Clear
7:55 AM 19.4 °F - 17.6 °F 93% 29.94 in 2.0 mi Calm Calm - N/A   Clear
8:15 AM 21.2 °F - 19.4 °F 93% 29.94 in 3.0 mi Calm Calm - N/A   Clear
8:35 AM 23.0 °F - 23.0 °F 100% 29.94 in 4.0 mi Calm Calm - N/A   Clear
8:55 AM 26.6 °F - 24.8 °F 93% 29.93 in 5.0 mi Calm Calm - N/A   Clear
9:15 AM 32.0 °F - 23.0 °F 69% 29.93 in 7.0 mi Calm Calm - N/A   Clear
9:30 AM 37.4 °F 31.4 °F 24.8 °F 60% 29.92 in 9.0 mi SSE 8.1 mph - N/A   Clear
9:55 AM 39.2 °F 33.6 °F 26.6 °F 61% 29.92 in 10.0 mi South 8.1 mph - N/A   Clear
10:15 AM 41.0 °F 34.3 °F 26.6 °F 57% 29.91 in 10.0 mi SSW 11.5 mph - N/A   Clear
10:35 AM 41.0 °F 33.9 °F 26.6 °F 57% 29.90 in 10.0 mi South 12.7 mph - N/A   Clear
10:55 AM 42.8 °F 38.0 °F 26.6 °F 53% 29.90 in 10.0 mi SSW 8.1 mph 16.1 mph N/A   Clear
11:15 AM 44.6 °F 39.2 °F 26.6 °F 49% 29.90 in 10.0 mi SSW 10.4 mph - N/A   Partly Cloudy
11:35 AM 42.8 °F 35.8 °F 26.6 °F 53% 29.89 in 10.0 mi SSW 13.8 mph - N/A   Scattered Clouds
11:55 AM 44.6 °F 39.7 °F 28.4 °F 53% 29.89 in 10.0 mi SSW 9.2 mph - N/A   Clear
12:15 PM 44.6 °F 40.2 °F 28.4 °F 53% 29.88 in 10.0 mi SSW 8.1 mph - N/A   Partly Cloudy
12:35 PM 46.4 °F 42.4 °F 28.4 °F 50% 29.88 in 10.0 mi SSW 8.1 mph - N/A   Partly Cloudy
12:55 PM 44.6 °F 39.7 °F 30.2 °F 57% 29.88 in 10.0 mi SSW 9.2 mph - N/A   Clear
1:15 PM 46.4 °F 42.4 °F 30.2 °F 53% 29.88 in 10.0 mi SSW 8.1 mph 13.8 mph N/A   Clear
1:35 PM 46.4 °F 42.4 °F 30.2 °F 53% 29.88 in 10.0 mi SSW 8.1 mph - N/A   Clear
1:55 PM 46.4 °F 42.4 °F 30.2 °F 53% 29.87 in 10.0 mi SSW 8.1 mph - N/A   Clear
2:15 PM 46.4 °F 42.9 °F 32.0 °F 57% 29.87 in 10.0 mi SW 6.9 mph - N/A   Partly Cloudy
2:30 PM 46.4 °F 42.4 °F 30.2 °F 53% 29.88 in 10.0 mi SW 8.1 mph - N/A   Mostly Cloudy
2:55 PM 46.4 °F 44.3 °F 32.0 °F 57% 29.88 in 10.0 mi SSW 4.6 mph - N/A   Scattered Clouds
3:15 PM 48.2 °F - 32.0 °F 54% 29.88 in 10.0 mi SW 5.8 mph - N/A   Partly Cloudy
3:35 PM 48.2 °F - 33.8 °F 58% 29.88 in 10.0 mi SSW 4.6 mph - N/A   Clear
3:55 PM 48.2 °F - 35.6 °F 62% 29.88 in 10.0 mi West 6.9 mph - N/A   Clear
4:15 PM 48.2 °F - 35.6 °F 62% 29.89 in 10.0 mi WNW 10.4 mph - N/A   Clear
4:35 PM 44.6 °F 39.7 °F 35.6 °F 71% 29.89 in 10.0 mi WNW 9.2 mph - N/A   Partly Cloudy
4:55 PM 44.6 °F 38.1 °F 35.6 °F 71% 29.90 in 9.0 mi NNW 13.8 mph - N/A   Partly Cloudy
5:15 PM 42.8 °F 36.6 °F 35.6 °F 76% 29.92 in 6.0 mi NW 11.5 mph - N/A   Haze
5:35 PM 41.0 °F 35.2 °F 33.8 °F 76% 29.92 in 6.0 mi NW 9.2 mph - N/A   Haze
5:55 PM 39.2 °F 34.2 °F 33.8 °F 81% 29.93 in 5.0 mi NNW 6.9 mph - N/A   Haze
6:15 PM 39.2 °F 33.6 °F 33.8 °F 81% 29.94 in 4.0 mi NW 8.1 mph - N/A   Haze
6:35 PM 39.2 °F 33.6 °F 33.8 °F 81% 29.96 in 5.0 mi NW 8.1 mph - N/A   Haze
6:55 PM 37.4 °F 30.3 °F 33.8 °F 87% 29.96 in 5.0 mi NW 10.4 mph - N/A   Haze
7:15 PM 37.4 °F 32.1 °F 32.0 °F 81% 29.97 in 5.0 mi NW 6.9 mph - N/A   Haze
7:35 PM 37.4 °F 30.8 °F 32.0 °F 81% 29.98 in 5.0 mi NW 9.2 mph - N/A   Haze
7:55 PM 35.6 °F 28.6 °F 32.0 °F 87% 29.99 in 4.0 mi NW 9.2 mph - N/A   Haze
8:15 PM 35.6 °F 29.2 °F 32.0 °F 87% 30.00 in 4.0 mi NW 8.1 mph - N/A   Overcast
8:35 PM 35.6 °F 28.0 °F 32.0 °F 87% 30.00 in 4.0 mi NW 10.4 mph - N/A   Haze
8:55 PM 35.6 °F 29.2 °F 32.0 °F 87% 30.01 in 4.0 mi NNW 8.1 mph - N/A   Haze
9:15 PM 35.6 °F 29.2 °F 32.0 °F 87% 30.01 in 4.0 mi NW 8.1 mph - N/A   Haze
9:35 PM 35.6 °F 30.7 °F 32.0 °F 87% 30.01 in 4.0 mi NW 5.8 mph - N/A   Scattered Clouds
9:55 PM 35.6 °F 29.2 °F 32.0 °F 87% 30.01 in 3.0 mi NNW 8.1 mph - N/A   Mostly Cloudy
10:15 PM 35.6 °F 29.2 °F 32.0 °F 87% 30.03 in 3.0 mi NW 8.1 mph - N/A   Scattered Clouds
10:35 PM 35.6 °F 29.2 °F 32.0 °F 87% 30.03 in 3.0 mi WNW 8.1 mph - N/A   Mostly Cloudy
10:55 PM 33.8 °F 26.4 °F 32.0 °F 93% 30.04 in 2.5 mi WNW 9.2 mph - N/A   Overcast
11:15 PM 33.8 °F 24.8 °F 32.0 °F 93% 30.04 in 3.0 mi NW 12.7 mph - N/A   Overcast
11:35 PM 33.8 °F 24.3 °F 32.0 °F 93% 30.04 in 3.0 mi NW 13.8 mph - N/A   Overcast
11:55 PM 33.8 °F 25.3 °F 32.0 °F 93% 30.04 in 3.0 mi NW 11.5 mph - N/A   Overcast